Track STARLINK-1791 now! 10-day predictions STARLINK-1791 is classified as:
1 46692U 20073Y 21021.58335648 -.00015342 00000-0 -10128-2 0 9998 2 46692 53.0558 25.3209 0001844 57.5439 52.2743 15.06416987 1759